GW5308 Weather Reports


Display with metric or nautical units.
time (UTC)temp
F
wind
direction
speed
MPH
gust
MPH
rain 1hr
in
rain 24hr
in
rain mn
in
humidity
%
barometer
mb
20260902192021 86 0 1.0 4.0 0.01 0.08 0.08 84 1013.8
20260902191542 87 8 0.0 2.0 0.01 0.08 0.08 85 1013.9
20260902191020 87 0 0.0 3.0 0.01 0.08 0.08 85 1013.7
20260902190520 88 295 0.0 7.0 0.01 0.08 0.08 83 1013.7
20260902190043 88 65 1.0 7.0 0.01 0.08 0.08 82 1013.8
20260902185520 88 171 1.0 7.0 0.01 0.08 0.08 83 1013.8
20260902185022 87 274 1.0 4.0 0.01 0.08 0.08 85 1013.8
20260902184542 86 0 0.0 2.0 0.01 0.08 0.08 90 1013.8
20260902184023 86 0 0.0 2.0 0.01 0.08 0.08 91 1013.9
20260902183523 86 0 0.0 1.0 0.01 0.08 0.08 92 1014.1
20260902183041 85 0 0.0 8.0 0.01 0.08 0.08 90 1014.2
20260902182524 86 0 2.0 8.0 0.01 0.08 0.08 88 1014.4
20260902182024 88 20 1.0 9.0 0.00 0.07 0.07 84 1014.4
20260902181542 89 14 4.0 9.0 0.00 0.07 0.07 81 1014.3
20260902181021 89 352 2.0 5.0 0.00 0.07 0.07 80 1014.3
20260902180518 89 319 0.0 3.0 0.00 0.07 0.07 80 1014.3
20260902180042 89 1 1.0 3.0 0.00 0.07 0.07 79 1014.4
20260902175521 90 35 1.0 6.0 0.00 0.07 0.07 79 1014.4
20260902175025 90 39 0.0 6.0 0.00 0.07 0.07 80 1014.3
20260902174541 90 29 1.0 6.0 0.00 0.07 0.07 79 1014.4
20260902174020 90 102 0.0 6.0 0.00 0.07 0.07 78 1014.4
20260902173521 90 296 1.0 5.0 0.00 0.07 0.07 78 1014.4
20260902173046 90 83 2.0 6.0 0.00 0.07 0.07 80 1014.6
20260902172526 89 311 0.0 7.0 0.00 0.07 0.07 82 1014.6
20260902172021 89 25 2.0 7.0 0.00 0.07 0.07 80 1014.7
20260902171540 89 12 0.0 3.0 0.00 0.07 0.07 83 1014.7
20260902171023 89 0 0.0 4.0 0.00 0.07 0.07 84 1014.8
20260902170522 89 29 1.0 4.0 0.00 0.07 0.07 81 1015.0
20260902170041 89 0 0.0 3.0 0.00 0.07 0.07 82 1014.9
20260902165520 89 14 0.0 3.0 0.00 0.26 0.07 81 1014.9
20260902165021 89 0 0.0 3.0 0.00 0.26 0.07 84 1014.9
20260902164541 89 80 0.0 4.0 0.00 0.26 0.07 82 1014.9
20260902164019 88 0 0.0 4.0 0.00 0.26 0.07 83 1014.9
20260902163523 87 292 1.0 4.0 0.00 0.26 0.07 84 1015.1
20260902163044 87 4 0.0 4.0 0.00 0.26 0.07 88 1015.1
20260902162521 87 25 1.0 4.0 0.00 0.26 0.07 86 1015.1
20260902162022 86 78 0.0 3.0 0.01 0.26 0.07 89 1015.1
20260902161543 86 0 0.0 3.0 0.01 0.26 0.07 92 1015.2
20260902161020 85 0 0.0 2.0 0.01 0.26 0.07 95 1015.3
20260902160525 84 0 0.0 2.0 0.01 0.26 0.07 94 1015.5
20260902160038 83 352 0.0 3.0 0.01 0.26 0.07 95 1015.6
20260902155519 83 0 0.0 3.0 0.01 0.28 0.07 95 1015.7
20260902155020 83 349 0.0 3.0 0.01 0.28 0.07 95 1015.7
20260902154539 83 0 0.0 3.0 0.01 0.28 0.07 95 1015.8
20260902154019 83 109 0.0 3.0 0.01 0.28 0.07 97 1015.7
20260902153526 82 0 0.0 2.0 0.01 0.28 0.07 99 1015.7
20260902153044 81 0 0.0 3.0 0.01 0.28 0.07 97 1015.8
20260902152520 82 58 0.0 8.0 0.01 0.28 0.07 96 1015.9
20260902152021 83 0 1.0 9.0 0.00 0.27 0.06 94 1016.0
20260902151547 84 0 2.0 9.0 0.02 0.27 0.06 94 1015.7
20260902151020 84 0 0.0 5.0 0.05 0.27 0.06 94 1015.6
20260902150521 84 97 1.0 5.0 0.05 0.27 0.06 92 1015.6
20260902150040 84 0 0.0 5.0 0.06 0.27 0.06 96 1015.7
20260902145519 83 23 0.0 3.0 0.06 0.27 0.06 95 1015.7
20260902145021 83 0 0.0 2.0 0.06 0.27 0.06 96 1015.7
20260902144538 83 270 0.0 3.0 0.06 0.27 0.06 97 1015.8
20260902144019 83 28 0.0 3.0 0.06 0.27 0.06 97 1015.7
20260902143524 82 0 0.0 3.0 0.06 0.27 0.06 98 1015.8
20260902143041 81 0 0.0 2.0 0.06 0.27 0.06 99 1015.9
20260902142523 81 0 0.0 1.0 0.06 0.27 0.06 100 1015.8
20260902142020 80 0 0.0 3.0 0.06 0.27 0.06 100 1015.9
20260902141544 80 349 0.0 4.0 0.03 0.24 0.03 99 1016.0
20260902141020 80 0 0.0 6.0 0.01 0.22 0.01 97 1016.0
20260902140520 81 317 0.0 7.0 0.01 0.22 0.01 95 1015.9
20260902140037 82 319 1.0 7.0 0.00 0.21 0.00 94 1015.9
20260902135521 83 17 0.0 4.0 0.00 0.21 0.00 94 1015.7
20260902135019 84 13 0.0 5.0 0.00 0.21 0.00 93 1015.5
20260902134543 84 106 1.0 5.0 0.00 0.21 0.00 93 1015.4
20260902134022 84 0 0.0 3.0 0.00 0.21 0.00 93 1015.4
20260902133521 84 63 1.0 3.0 0.00 0.21 0.00 92 1015.6
20260902133039 84 0 0.0 4.0 0.00 0.21 0.00 93 1015.6
20260902132524 84 357 1.0 4.0 0.00 0.21 0.00 93 1015.7
20260902132020 83 0 0.0 3.0 0.00 0.21 0.00 95 1015.8
20260902131543 82 0 0.0 2.0 0.00 0.21 0.00 96 1015.8
20260902131020 81 317 0.0 3.0 0.00 0.21 0.00 97 1015.8
20260902130525 80 335 0.0 4.0 0.00 0.21 0.00 99 1015.8
20260902130041 80 328 1.0 4.0 0.00 0.21 0.00 100 1015.8
20260902125520 79 280 1.0 5.0 0.00 0.21 0.00 100 1015.7
20260902125022 79 342 1.0 5.0 0.00 0.21 0.00 100 1015.7
20260902124540 79 0 0.0 0.0 0.00 0.21 0.00 100 1015.7
20260902124024 78 0 0.0 0.0 0.00 0.21 0.00 100 1015.6
20260902123521 78 0 0.0 0.0 0.00 0.21 0.00 100 1015.5
20260902123041 78 0 0.0 0.0 0.00 0.21 0.00 100 1015.5
20260902122524 78 0 0.0 0.0 0.00 0.21 0.00 100 1015.5
20260902122019 77 0 0.0 0.0 0.00 0.21 0.00 100 1015.5
20260902121547 77 0 0.0 0.0 0.00 0.21 0.00 100 1015.5
20260902121020 77 0 0.0 0.0 0.00 0.21 0.00 100 1015.5
20260902120519 77 0 0.0 0.0 0.00 0.21 0.00 100 1015.5
20260902120043 77 0 0.0 1.0 0.00 0.21 0.00 100 1015.5
20260902115550 76 0 0.0 1.0 0.00 0.21 0.00 100 1015.4
20260902115018 76 0 0.0 0.0 0.00 0.21 0.00 100 1015.3
20260902114542 76 0 0.0 0.0 0.00 0.21 0.00 100 1015.4
20260902114017 76 0 0.0 0.0 0.00 0.21 0.00 100 1015.2
20260902113520 76 0 0.0 0.0 0.00 0.21 0.00 100 1015.2
20260902113036 75 0 0.0 0.0 0.00 0.21 0.00 100 1015.2
20260902112521 75 0 0.0 0.0 0.00 0.21 0.00 100 1015.2
20260902112021 75 0 0.0 0.0 0.00 0.21 0.00 100 1015.1
20260902111537 75 0 0.0 0.0 0.00 0.21 0.00 100 1015.1
20260902111019 75 0 0.0 0.0 0.00 0.21 0.00 100 1015.2
20260902110520 75 0 0.0 0.0 0.00 0.21 0.00 100 1015.1
20260902110041 75 0 0.0 0.0 0.00 0.21 0.00 100 1015.1
20260902105519 75 0 0.0 0.0 0.00 0.21 0.00 100 1015.2
20260902105019 75 0 0.0 0.0 0.00 0.21 0.00 100 1015.0
20260902104600 74 0 0.0 0.0 0.00 0.21 0.00 100 1015.0
20260902104019 75 0 0.0 0.0 0.00 0.21 0.00 100 1014.9
20260902103523 75 0 0.0 0.0 0.00 0.21 0.00 100 1014.9
20260902103038 75 0 0.0 0.0 0.00 0.21 0.00 100 1014.8
20260902102521 75 0 0.0 0.0 0.00 0.21 0.00 100 1014.8
20260902102020 75 0 0.0 0.0 0.00 0.21 0.00 100 1014.8
20260902101534 75 0 0.0 0.0 0.00 0.21 0.00 100 1014.8
20260902101019 75 0 0.0 0.0 0.00 0.21 0.00 100 1014.8
20260902100520 75 0 0.0 0.0 0.00 0.21 0.00 100 1014.7
20260902100047 75 0 0.0 0.0 0.00 0.21 0.00 100 1014.6
20260902095520 75 0 0.0 0.0 0.00 0.21 0.00 100 1014.5
20260902095019 75 0 0.0 0.0 0.00 0.21 0.00 100 1014.5
20260902094535 75 0 0.0 0.0 0.00 0.21 0.00 100 1014.4
20260902094021 75 0 0.0 0.0 0.00 0.21 0.00 100 1014.4
20260902093523 75 0 0.0 0.0 0.00 0.21 0.00 100 1014.3
20260902093037 75 0 0.0 0.0 0.00 0.21 0.00 100 1014.3
20260902092519 75 0 0.0 0.0 0.00 0.21 0.00 100 1014.3
20260902092026 75 0 0.0 0.0 0.00 0.21 0.00 100 1014.1
20260902091539 75 0 0.0 0.0 0.00 0.21 0.00 100 1014.1
20260902091019 75 0 0.0 0.0 0.00 0.21 0.00 100 1014.0
20260902090518 75 0 0.0 0.0 0.00 0.21 0.00 100 1014.0
20260902090036 76 0 0.0 0.0 0.00 0.21 0.00 100 1013.9
20260902085519 75 0 0.0 0.0 0.00 0.21 0.00 100 1013.9
20260902085021 75 0 0.0 1.0 0.00 0.21 0.00 100 1013.9
20260902084541 75 0 0.0 1.0 0.00 0.21 0.00 100 1014.0
20260902084022 75 0 0.0 1.0 0.00 0.21 0.00 100 1014.1
20260902083521 75 0 0.0 0.0 0.00 0.21 0.00 100 1014.1
20260902083036 75 0 0.0 0.0 0.00 0.21 0.00 100 1014.1
20260902082519 75 0 0.0 0.0 0.00 0.21 0.00 100 1014.1
20260902082023 75 0 0.0 0.0 0.00 0.21 0.00 100 1014.2
20260902081605 75 0 0.0 0.0 0.00 0.21 0.00 100 1014.1
20260902081023 75 0 0.0 0.0 0.00 0.21 0.00 100 1014.1
20260902080521 75 0 0.0 0.0 0.00 0.21 0.00 100 1014.3
20260902080053 75 0 0.0 0.0 0.00 0.21 0.00 100 1014.2
20260902075520 75 0 0.0 0.0 0.00 0.21 0.00 100 1014.3
20260902075019 74 0 0.0 0.0 0.00 0.21 0.00 100 1014.3
20260902074544 74 0 0.0 0.0 0.00 0.21 0.00 100 1014.3
20260902074021 74 0 0.0 0.0 0.00 0.21 0.00 100 1014.4
20260902073520 74 0 0.0 0.0 0.00 0.21 0.00 100 1014.4
20260902073039 74 0 0.0 0.0 0.00 0.21 0.00 100 1014.4
20260902072526 74 0 0.0 0.0 0.00 0.21 0.00 100 1014.3
20260902072023 74 0 0.0 0.0 0.00 0.21 0.00 100 1014.3
20260902071540 74 0 0.0 0.0 0.00 0.21 0.00 100 1014.2
20260902071021 74 0 0.0 0.0 0.00 0.21 0.00 100 1014.4
20260902070524 74 0 0.0 0.0 0.00 0.21 0.00 100 1014.5
20260902070043 74 0 0.0 0.0 0.00 0.21 0.00 100 1014.5
20260902065523 74 0 0.0 0.0 0.00 0.21 0.00 100 1014.5
20260902065021 74 0 0.0 0.0 0.00 0.21 0.00 100 1014.5
20260902064540 74 0 0.0 0.0 0.00 0.21 0.00 100 1014.5
20260902064023 75 0 0.0 0.0 0.00 0.21 0.00 100 1014.5
20260902063519 75 0 0.0 0.0 0.00 0.21 0.00 100 1014.6
20260902063056 75 0 0.0 0.0 0.00 0.21 0.00 100 1014.7
20260902062524 75 0 0.0 0.0 0.00 0.21 0.00 100 1014.7
20260902062021 75 0 0.0 0.0 0.00 0.21 0.00 100 1014.7
20260902061545 75 0 0.0 0.0 0.00 0.21 0.00 100 1014.7
20260902061035 75 0 0.0 0.0 0.00 0.21 0.00 100 1014.5
20260902060520 75 0 0.0 0.0 0.00 0.21 0.00 100 1014.6
20260902060054 75 0 0.0 0.0 0.00 0.21 0.00 100 1014.6
20260902055521 75 0 0.0 0.0 0.00 0.21 0.00 100 1014.6
20260902055020 75 0 0.0 0.0 0.00 0.21 0.00 100 1014.5
20260902054543 75 0 0.0 0.0 0.00 0.21 0.00 100 1014.6
20260902054020 75 0 0.0 0.0 0.00 0.21 0.00 100 1014.7
20260902053519 75 0 0.0 0.0 0.00 0.21 0.00 100 1014.6
20260902053042 75 0 0.0 0.0 0.00 0.21 0.00 100 1014.7
20260902052519 75 0 0.0 0.0 0.00 0.21 0.00 100 1014.7
20260902052018 75 0 0.0 0.0 0.00 0.21 0.00 100 1014.8
20260902051537 75 0 0.0 0.0 0.00 0.21 0.00 100 1014.7
20260902051020 75 0 0.0 0.0 0.00 0.21 0.00 100 1014.7
20260902050521 75 0 0.0 0.0 0.00 0.21 0.00 100 1014.7
20260902050036 75 0 0.0 0.0 0.00 0.21 0.00 100 1014.6
20260902045518 75 0 0.0 0.0 0.00 0.21 0.00 100 1014.7
20260902045019 75 0 0.0 0.0 0.00 0.21 0.00 100 1014.8
20260902044545 75 0 0.0 0.0 0.00 0.21 0.00 100 1014.8
20260902044022 75 0 0.0 0.0 0.00 0.21 0.00 100 1014.8
20260902043520 75 0 0.0 0.0 0.00 0.21 0.00 100 1014.9
20260902043041 75 0 0.0 0.0 0.00 0.21 0.00 100 1014.9
20260902042519 75 0 0.0 0.0 0.00 0.21 0.00 100 1014.9
20260902042017 75 0 0.0 0.0 0.00 0.21 0.00 100 1015.0
20260902041539 75 0 0.0 0.0 0.00 0.21 0.00 100 1015.0
20260902041020 75 0 0.0 0.0 0.00 0.21 0.00 100 1015.0
20260902040521 75 0 0.0 0.0 0.00 0.21 0.00 100 1015.1
20260902040037 75 0 0.0 0.0 0.00 0.21 0.00 100 1015.1
20260902035518 75 0 0.0 0.0 0.00 0.21 0.21 100 1015.2
20260902035019 75 0 0.0 0.0 0.00 0.21 0.21 100 1015.2
20260902034537 75 0 0.0 0.0 0.00 0.21 0.21 100 1015.2
20260902034019 75 0 0.0 0.0 0.00 0.21 0.21 100 1015.3
20260902033520 75 0 0.0 0.0 0.00 0.21 0.21 100 1015.4
20260902033037 75 0 0.0 0.0 0.00 0.21 0.21 100 1015.4
20260902032521 76 0 0.0 0.0 0.00 0.21 0.21 100 1015.5
20260902032024 76 0 0.0 0.0 0.00 0.21 0.21 100 1015.5
20260902031542 76 0 0.0 0.0 0.00 0.21 0.21 100 1015.5
20260902031020 76 0 0.0 0.0 0.00 0.21 0.21 100 1015.5
20260902030521 76 0 0.0 0.0 0.00 0.21 0.21 100 1015.4
20260902030038 76 0 0.0 0.0 0.00 0.21 0.21 100 1015.5
20260902025521 76 0 0.0 0.0 0.00 0.21 0.21 100 1015.6
20260902025020 76 0 0.0 0.0 0.00 0.21 0.21 100 1015.6
20260902024537 76 0 0.0 0.0 0.00 0.21 0.21 100 1015.6
20260902024019 76 0 0.0 0.0 0.00 0.21 0.21 100 1015.8
20260902023519 76 0 0.0 0.0 0.00 0.21 0.21 100 1015.7
20260902023040 76 0 0.0 0.0 0.00 0.21 0.21 100 1015.8
20260902022520 76 0 0.0 0.0 0.00 0.21 0.21 100 1015.8
20260902022019 76 0 0.0 0.0 0.00 0.21 0.21 100 1015.8
20260902021543 76 0 0.0 0.0 0.00 0.21 0.21 100 1015.7
20260902021025 76 0 0.0 0.0 0.00 0.21 0.21 100 1015.8
20260902020525 76 0 0.0 0.0 0.00 0.21 0.21 100 1015.8
20260902020043 77 0 0.0 0.0 0.00 0.21 0.21 99 1015.7
20260902015518 77 0 0.0 0.0 0.00 0.21 0.21 99 1015.7
20260902015020 77 0 0.0 0.0 0.00 0.21 0.21 99 1015.7
20260902014548 77 0 0.0 0.0 0.00 0.21 0.21 98 1015.8
20260902014019 77 0 0.0 0.0 0.00 0.21 0.21 99 1015.7
20260902013519 77 0 0.0 0.0 0.00 0.21 0.21 99 1015.6
20260902013037 77 0 0.0 0.0 0.00 0.21 0.21 98 1015.6
20260902012518 77 0 0.0 0.0 0.00 0.21 0.21 98 1015.5
20260902012021 77 0 0.0 0.0 0.00 0.21 0.21 98 1015.4
20260902011537 78 0 0.0 0.0 0.00 0.21 0.21 98 1015.3
20260902011024 78 0 0.0 0.0 0.00 0.21 0.21 98 1015.3
20260902010521 78 0 0.0 0.0 0.00 0.21 0.21 97 1015.2
20260902010034 78 0 0.0 0.0 0.00 0.21 0.21 97 1015.2
20260902005519 78 0 0.0 0.0 0.00 0.21 0.21 97 1015.2
20260902005020 78 0 0.0 0.0 0.00 0.21 0.21 96 1015.1
20260902004542 79 0 0.0 0.0 0.00 0.21 0.21 96 1015.1
20260902004022 79 0 0.0 0.0 0.00 0.21 0.21 96 1015.2
20260902003522 79 0 0.0 0.0 0.00 0.21 0.21 96 1015.2
20260902003040 79 0 0.0 0.0 0.00 0.21 0.21 95 1015.3
20260902002520 80 0 0.0 0.0 0.00 0.21 0.21 95 1015.4
20260902002019 80 0 0.0 0.0 0.00 0.21 0.21 94 1015.2
20260902001539 80 0 0.0 0.0 0.00 0.21 0.21 94 1015.2
20260902001020 80 0 0.0 1.0 0.00 0.21 0.21 93 1015.3
20260902000521 81 0 0.0 1.0 0.00 0.21 0.21 93 1015.2
20260902000044 81 0 0.0 3.0 0.00 0.21 0.21 93 1015.2
20260901235524 81 24 1.0 3.0 0.00 0.21 0.21 92 1015.3
20260901235020 81 0 0.0 0.0 0.00 0.21 0.21 92 1015.3
20260901234559 81 0 0.0 0.0 0.00 0.21 0.21 92 1015.4
20260901234020 81 0 0.0 0.0 0.00 0.21 0.21 91 1015.4
20260901233517 81 0 0.0 0.0 0.00 0.21 0.21 91 1015.3
20260901233049 81 0 0.0 0.0 0.00 0.21 0.21 90 1015.3
20260901232516 81 0 0.0 0.0 0.00 0.21 0.21 90 1015.1
20260901232022 81 0 0.0 1.0 0.00 0.21 0.21 89 1015.1
20260901231536 82 0 0.0 3.0 0.00 0.21 0.21 89 1015.1
20260901231019 82 0 0.0 3.0 0.00 0.21 0.21 89 1015.1
20260901230521 82 345 0.0 3.0 0.00 0.21 0.21 88 1015.1
20260901230037 82 0 0.0 2.0 0.00 0.21 0.21 88 1015.1
20260901225525 82 8 0.0 2.0 0.00 0.21 0.21 87 1015.1
20260901225021 83 0 0.0 1.0 0.00 0.21 0.21 87 1015.1
20260901224540 83 0 0.0 3.0 0.00 0.21 0.21 87 1015.1
20260901224020 83 52 0.0 4.0 0.00 0.21 0.21 87 1015.1
20260901223521 83 0 0.0 5.0 0.00 0.21 0.21 86 1015.0
20260901223037 83 343 1.0 7.0 0.00 0.21 0.21 85 1015.0
20260901222521 83 8 1.0 7.0 0.00 0.21 0.21 85 1014.9
20260901222019 84 335 1.0 6.0 0.00 0.21 0.21 85 1014.8
20260901221601 84 0 0.0 5.0 0.00 0.21 0.21 88 1014.7
20260901221020 84 0 0.0 5.0 0.00 0.21 0.21 88 1014.5
20260901220519 84 12 1.0 5.0 0.00 0.21 0.21 88 1014.5
20260901220042 84 356 1.0 6.0 0.00 0.21 0.21 88 1014.5
20260901215519 84 4 0.0 6.0 0.00 0.21 0.21 88 1014.4
20260901215022 84 0 1.0 5.0 0.00 0.21 0.21 87 1014.3
20260901214538 85 0 0.0 7.0 0.00 0.21 0.21 88 1014.2
20260901214025 85 0 1.0 7.0 0.00 0.21 0.21 87 1014.3
20260901213520 85 295 1.0 5.0 0.00 0.21 0.21 87 1014.4
20260901213039 85 41 1.0 5.0 0.00 0.21 0.21 86 1014.4
20260901212519 86 290 1.0 5.0 0.00 0.21 0.21 84 1014.5
20260901212024 86 313 1.0 5.0 0.00 0.21 0.21 84 1014.3
20260901211538 86 0 0.0 5.0 0.00 0.21 0.21 86 1014.3
20260901211022 86 341 1.0 5.0 0.00 0.21 0.21 84 1014.5
20260901210523 86 74 1.0 6.0 0.00 0.21 0.21 85 1014.4
20260901210040 86 341 1.0 8.0 0.00 0.21 0.21 84 1014.3
20260901205521 86 357 2.0 8.0 0.00 0.21 0.21 82 1014.4
20260901205019 87 342 2.0 7.0 0.00 0.21 0.21 81 1014.4
20260901204539 87 30 1.0 7.0 0.00 0.21 0.21 82 1014.4
20260901204019 87 75 1.0 7.0 0.00 0.21 0.21 81 1014.4
20260901203519 88 98 2.0 6.0 0.00 0.21 0.21 80 1014.6
20260901203049 88 60 0.0 6.0 0.00 0.21 0.21 79 1014.7
20260901202520 89 21 1.0 6.0 0.00 0.21 0.21 78 1014.7
20260901202030 90 320 1.0 6.0 0.00 0.21 0.21 77 1014.8
20260901201546 89 24 1.0 5.0 0.00 0.21 0.21 80 1014.7
20260901201021 88 0 1.0 6.0 0.00 0.21 0.21 82 1014.7
20260901200521 88 33 2.0 6.0 0.00 0.21 0.21 80 1014.8
20260901200040 87 0 0.0 4.0 0.00 0.21 0.21 81 1014.9
20260901195519 87 18 0.0 5.0 0.00 0.21 0.21 81 1014.9
20260901195022 87 0 2.0 5.0 0.00 0.21 0.21 80 1015.0
20260901194537 87 318 2.0 5.0 0.00 0.21 0.21 80 1015.0
20260901194023 87 0 0.0 5.0 0.00 0.21 0.21 80 1015.0
20260901193523 87 56 1.0 4.0 0.00 0.21 0.21 80 1014.9
20260901193038 87 60 0.0 4.0 0.00 0.21 0.21 82 1015.1
20260901192524 87 0 0.0 3.0 0.00 0.21 0.21 82 1015.2